User: anonymous   Login
Location: Unspecified
(0.0000°N, 0.0000°E)
Time: 10:11:59
(UTC+00:00)
Language:

GONETS D1M 1 - Orbit

View from above orbital plane
View from above orbital plane
View from above satellite
View from above satellite

Ground track
Ground track

The orbit data is extracted from the following two-line orbital elements,

1 28908U 05048A   18113.88812854 +.00000026 +00000-0 +99237-4 0  9994
2 28908 082.4712 050.6862 0007224 345.3013 080.6496 12.55485290565408
Epoch (UTC): 23 April 2018 21:18:54
Eccentricity: 0.0007224
inclination: 82.4712°
perigee height: 1436 km
apogee height: 1447 km
right ascension of ascending node: 50.6862°
argument of perigee: 345.3013°
revolutions per day: 12.55485290
mean anomaly at epoch: 80.6496°
orbit number at epoch: 56540

The dashed part of the orbit path shows where the satellite is in the earth's shadow,  

DLR